Burns, OR

6:08 PM PST on February 06, 2016 (GMT -0800)
Burns Municipal

Weather History for KBNO - October, 2011

Change the Weather History Date:

Friday, October 28, 2011

  Actual Average Record
Temperature  
Mean Temperature 40 °F 40 °F  
Max Temperature 57 °F 55 °F 74 °F (1968)
Min Temperature 23 °F 26 °F 13 °F (1971)
Degree Days  
Heating Degree Days 25 25  
Month to date heating degree days 547 556  
Since 1 July heating degree days 766 975  
Cooling Degree Days 0 0  
Month to date cooling degree days 0 0  
Year to date cooling degree days 144 215  
Moisture  
Dew Point 20 °F    
Average Humidity 47    
Maximum Humidity 75    
Minimum Humidity 19    
Precipitation  
Precipitation 0.00 in 0.03 in 0.29 in (1991)
Month to date precipitation 1.34 0.68  
Year to date precipitation 9.64 8.10  
Sea Level Pressure  
Sea Level Pressure 30.18 in    
Wind  
Wind Speed 3 mph (West)    
Max Wind Speed 18 mph    
Max Gust Speed 25 mph    
Visibility 7 miles    
Events      
T = Trace of Precipitation, MM = Missing Value Source: NWS Daily Summary

Daily Weather History Graph

Daily Weather History Graph

Search for Another Location

Airport or City:

Trip Planner

Search our weather history database for the weather conditions in past years. The results will help you decide how hot, cold, wet, or windy it might be!

Date:

Astronomy

Oct. 28, 2011 Rise Set
Actual Time 7:26 AM PDT 5:52 PM PDT
Civil Twilight 6:56 AM PDT 6:22 PM PDT
Nautical Twilight 6:22 AM PDT 6:55 PM PDT
Astronomical Twilight 5:49 AM PDT 7:28 PM PDT
Moon 9:53 AM PDT (10/28) 7:14 PM PDT (10/28)
Length of Visible Light 11h 25m
Length of Day
10h 26m
Waxing Crescent, 6% of the Moon is Illuminated
Oct 28
Waxing Crescent
Nov 2
First Quarter
Nov 10
Full
Nov 18
Last Quarter
Nov 24
New

Hourly Weather History & Observations

Time (PDT) Temp. Windchill Dew Point Humidity Pressure Visibility Wind Dir Wind Speed Gust Speed Precip Events Conditions
12:53 AM 26.1 °F 19.4 °F 17.1 °F 69% 30.26 in 10.0 mi West 5.8 mph - N/A   Clear
1:53 AM 26.1 °F 21.9 °F 17.1 °F 69% 30.26 in 10.0 mi West 3.5 mph - N/A   Clear
2:53 AM 25.0 °F - 18.0 °F 75% 30.25 in 10.0 mi Calm Calm - N/A   Clear
3:53 AM 25.0 °F 18.1 °F 18.0 °F 75% 30.24 in 10.0 mi NNW 5.8 mph - N/A   Clear
4:53 AM 27.0 °F 21.6 °F 19.0 °F 72% 30.24 in 10.0 mi WSW 4.6 mph - N/A   Clear
6:53 AM 24.1 °F 18.2 °F 17.1 °F 75% 30.30 in 10.0 mi WSW 4.6 mph - N/A   Clear
7:53 AM 26.1 °F - 19.0 °F 75% 30.30 in 10.0 mi Calm Calm - N/A   Clear
8:53 AM 34.0 °F - 21.9 °F 61% 30.30 in 10.0 mi Calm Calm - N/A   Clear
9:53 AM 41.0 °F - 21.9 °F 47% 30.27 in 10.0 mi Calm Calm - N/A   Clear
10:53 AM 46.9 °F - 21.0 °F 36% 30.25 in 10.0 mi Calm Calm - N/A   Clear
12:53 PM 54.0 °F - 14.0 °F 21% 30.20 in 10.0 mi SE 4.6 mph - N/A   Clear
1:53 PM 55.0 °F - 14.0 °F 20% 30.17 in 9.0 mi Calm Calm - N/A   Clear
2:53 PM 55.9 °F - 15.1 °F 20% 30.16 in 7.0 mi Calm Calm - N/A   Clear
3:53 PM 55.9 °F - 16.0 °F 21% 30.14 in 9.0 mi Calm Calm - N/A   Clear
4:53 PM 54.0 °F - 21.0 °F 28% 30.13 in 9.0 mi North 4.6 mph - N/A   Clear
5:53 PM 46.9 °F - 23.0 °F 39% 30.14 in 7.0 mi Calm Calm - N/A   Clear
6:08 PM 44.6 °F 42.2 °F 23.0 °F 43% 30.11 in 1.8 mi WSW 4.6 mph - N/A   Haze
6:20 PM 44.6 °F - 21.2 °F 39% 30.10 in 3.0 mi Calm Calm - N/A   Haze
6:35 PM 42.8 °F 41.1 °F 23.0 °F 46% 30.10 in 1.8 mi West 3.5 mph - N/A   Haze
6:43 PM 42.8 °F 40.1 °F 23.0 °F 46% 30.10 in 1.0 mi West 4.6 mph - N/A   Haze
6:53 PM 41.0 °F - 23.0 °F 49% 30.16 in 0.8 mi Calm Calm - N/A   Haze
7:03 PM 39.2 °F 34.2 °F 24.8 °F 56% 30.11 in 1.8 mi NNW 6.9 mph - N/A   Haze
7:05 PM 39.2 °F 34.2 °F 23.0 °F 52% 30.11 in 3.0 mi North 6.9 mph - N/A   Haze
7:53 PM 36.0 °F 32.1 °F 21.9 °F 57% 30.17 in 4.0 mi WSW 4.6 mph - N/A   Haze
8:53 PM 32.0 °F 28.7 °F 21.9 °F 66% 30.18 in 8.0 mi SSW 3.5 mph - N/A   Clear
9:53 PM 32.0 °F - 21.9 °F 66% 30.17 in 6.0 mi Calm Calm - N/A   Haze
10:53 PM 48.9 °F - 19.9 °F 32% 30.11 in 7.0 mi SW 13.8 mph - N/A   Partly Cloudy
11:53 PM 52.0 °F - 23.0 °F 32% 30.10 in 7.0 mi SW 16.1 mph - N/A   Mostly Cloudy